• In Belarus
  • List of Countries
  • For 7 days
  • Water Temperature
  • Satellite Maps
  • Weather Map
  • Weather Widgets
  • user-avatar
    Login

    Hourly Weather Kalgoorlie

    Today, 21 October, Sunday

    Time Temperature Precipitation Wind Pressure Humidity
    00:00 +20°C° 0 mm 4 mps 729 mmHg 34%
    01:00 +19°C° 0 mm 4 mps 729 mmHg 40%
    02:00 +18°C° 0 mm 4 mps 728 mmHg 47%
    03:00 +17°C° 0 mm 4 mps 728 mmHg 53%
    04:00 +17°C° 0 mm 4 mps 728 mmHg 59%
    05:00 +15°C° 0 mm 4 mps 728 mmHg 65%
    06:00 +16°C° 0 mm 5 mps 729 mmHg 61%
    07:00 +17°C° 0 mm 5 mps 729 mmHg 57%
    08:00 +19°C° 0 mm 6 mps 729 mmHg 54%
    09:00 +20°C° 0 mm 6 mps 729 mmHg 46%
    10:00 +22°C° 0 mm 7 mps 729 mmHg 39%
    11:00 +24°C° 0 mm 7 mps 729 mmHg 32%
    12:00 +26°C° 0 mm 8 mps 728 mmHg 28%
    13:00 +27°C° 0 mm 8 mps 728 mmHg 25%
    14:00 +28°C° 0 mm 9 mps 727 mmHg 22%
    15:00 +28°C° 0 mm 8 mps 727 mmHg 24%
    16:00 +27°C° 0 mm 8 mps 727 mmHg 26%
    17:00 +27°C° 0 mm 8 mps 727 mmHg 28%
    18:00 +24°C° 0 mm 8 mps 728 mmHg 34%
    19:00 +23°C° 0 mm 7 mps 728 mmHg 40%
    20:00 +22°C° 0 mm 6 mps 728 mmHg 44%
    21:00 +21°C° 0 mm 6 mps 728 mmHg 47%
    22:00 +20°C° 0 mm 6 mps 729 mmHg 51%
    23:00 +18°C° 0 mm 7 mps 729 mmHg 54%

    Tomorrow, 22 October, Monday

    Time Temperature Precipitation Wind Pressure Humidity
    00:00 +17°C° 0 mm 7 mps 729 mmHg 58%
    01:00 +16°C° 0 mm 7 mps 729 mmHg 62%
    02:00 +16°C° 0 mm 7 mps 729 mmHg 65%
    03:00 +15°C° 0 mm 7 mps 729 mmHg 68%
    04:00 +14°C° 0 mm 6 mps 729 mmHg 70%
    05:00 +13°C° 0 mm 6 mps 730 mmHg 72%
    06:00 +13°C° 0 mm 6 mps 730 mmHg 65%
    07:00 +14°C° 0 mm 6 mps 731 mmHg 57%
    08:00 +15°C° 0 mm 6 mps 731 mmHg 50%
    09:00 +16°C° 0 mm 6 mps 731 mmHg 43%
    10:00 +19°C° 0 mm 5 mps 731 mmHg 37%
    11:00 +20°C° 0 mm 5 mps 731 mmHg 30%
    12:00 +22°C° 0 mm 5 mps 731 mmHg 27%
    13:00 +23°C° 0 mm 5 mps 730 mmHg 24%
    14:00 +25°C° 0 mm 5 mps 730 mmHg 22%
    15:00 +25°C° 0 mm 5 mps 730 mmHg 22%
    16:00 +25°C° 0 mm 5 mps 730 mmHg 21%
    17:00 +25°C° 0 mm 5 mps 730 mmHg 21%
    18:00 +23°C° 0 mm 5 mps 730 mmHg 24%
    19:00 +22°C° 0 mm 5 mps 731 mmHg 27%
    20:00 +20°C° 0 mm 5 mps 731 mmHg 30%
    21:00 +19°C° 0 mm 5 mps 731 mmHg 34%
    22:00 +17°C° 0 mm 6 mps 731 mmHg 38%
    23:00 +16°C° 0 mm 7 mps 732 mmHg 42%

    Day after tomorrow, 23 October, Tuesday

    Time Temperature Precipitation Wind Pressure Humidity
    00:00 +15°C° 0 mm 6 mps 731 mmHg 48%
    01:00 +14°C° 0 mm 6 mps 731 mmHg 53%
    02:00 +13°C° 0 mm 6 mps 731 mmHg 59%
    03:00 +13°C° 0 mm 6 mps 731 mmHg 61%
    04:00 +11°C° 0 mm 6 mps 731 mmHg 64%
    05:00 +11°C° 0 mm 6 mps 731 mmHg 67%
    06:00 +13°C° 0 mm 6 mps 732 mmHg 63%
    07:00 +14°C° 0 mm 7 mps 732 mmHg 59%
    08:00 +15°C° 0 mm 7 mps 732 mmHg 56%
    09:00 +17°C° 0 mm 7 mps 732 mmHg 50%
    10:00 +20°C° 0 mm 7 mps 732 mmHg 43%
    11:00 +22°C° 0 mm 6 mps 731 mmHg 37%
    12:00 +23°C° 0 mm 6 mps 731 mmHg 33%
    13:00 +25°C° 0 mm 5 mps 730 mmHg 30%
    14:00 +26°C° 0 mm 4 mps 729 mmHg 26%
    15:00 +27°C° 0 mm 4 mps 729 mmHg 25%
    16:00 +27°C° 0 mm 3 mps 729 mmHg 24%
    17:00 +27°C° 0 mm 3 mps 729 mmHg 23%
    18:00 +26°C° 0 mm 3 mps 729 mmHg 24%
    19:00 +25°C° 0 mm 3 mps 729 mmHg 26%
    20:00 +24°C° 0 mm 3 mps 729 mmHg 28%
    21:00 +24°C° 0 mm 3 mps 729 mmHg 29%
    22:00 +22°C° 0 mm 4 mps 728 mmHg 30%
    23:00 +22°C° 0 mm 5 mps 728 mmHg 32%

    24 October, Wednesday

    Time Temperature Precipitation Wind Pressure Humidity
    00:00 +21°C° 0 mm 5 mps 728 mmHg 34%
    01:00 +21°C° 0 mm 6 mps 727 mmHg 36%
    02:00 +20°C° 0 mm 6 mps 727 mmHg 38%
    03:00 +20°C° 0 mm 6 mps 727 mmHg 40%
    04:00 +19°C° 0 mm 6 mps 727 mmHg 42%
    05:00 +19°C° 0 mm 6 mps 727 mmHg 43%
    06:00 +20°C° 0 mm 7 mps 727 mmHg 41%
    07:00 +21°C° 0 mm 7 mps 727 mmHg 39%
    08:00 +23°C° 0 mm 8 mps 727 mmHg 36%
    09:00 +26°C° 0 mm 8 mps 727 mmHg 32%
    10:00 +29°C° 0 mm 7 mps 726 mmHg 28%
    11:00 +32°C° 0 mm 7 mps 726 mmHg 23%
    12:00 +33°C° 0 mm 6 mps 725 mmHg 21%
    13:00 +34°C° 0 mm 5 mps 724 mmHg 19%
    14:00 +35°C° 0 mm 4 mps 723 mmHg 17%
    15:00 +33°C° 0.9 mm 5 mps 723 mmHg 24%
    16:00 +30°C° 0.9 mm 6 mps 722 mmHg 32%
    17:00 +28°C° 0.9 mm 7 mps 722 mmHg 39%
    18:00 +26°C° 0.2 mm 8 mps 722 mmHg 46%
    19:00 +24°C° 0.2 mm 9 mps 723 mmHg 53%
    20:00 +22°C° 0.2 mm 10 mps 723 mmHg 59%
    21:00 +21°C° 0.5 mm 10 mps 723 mmHg 63%
    22:00 +19°C° 0.5 mm 10 mps 724 mmHg 67%
    23:00 +19°C° 0.5 mm 10 mps 724 mmHg 70%

    25 October, Thursday

    Time Temperature Precipitation Wind Pressure Humidity
    00:00 +18°C° 0.5 mm 10 mps 724 mmHg 70%
    01:00 +18°C° 0.5 mm 11 mps 723 mmHg 70%
    02:00 +17°C° 0.5 mm 11 mps 723 mmHg 70%
    03:00 +17°C° 0.1 mm 11 mps 723 mmHg 70%
    04:00 +16°C° 0.1 mm 11 mps 724 mmHg 71%
    05:00 +16°C° 0.1 mm 10 mps 724 mmHg 71%
    06:00 +17°C° 0.1 mm 11 mps 724 mmHg 66%
    07:00 +18°C° 0.1 mm 11 mps 724 mmHg 60%
    08:00 +19°C° 0.1 mm 11 mps 725 mmHg 55%
    09:00 +22°C° 0 mm 10 mps 725 mmHg 49%
    10:00 +24°C° 0 mm 10 mps 724 mmHg 44%
    11:00 +27°C° 0 mm 9 mps 724 mmHg 38%
    12:00 +28°C° 0 mm 9 mps 724 mmHg 35%
    13:00 +29°C° 0 mm 9 mps 723 mmHg 32%
    14:00 +31°C° 0 mm 9 mps 723 mmHg 29%
    15:00 +31°C° 0 mm 9 mps 723 mmHg 30%
    16:00 +31°C° 0 mm 9 mps 723 mmHg 31%
    17:00 +29°C° 0 mm 10 mps 723 mmHg 32%
    18:00 +27°C° 0 mm 10 mps 724 mmHg 37%
    19:00 +26°C° 0 mm 10 mps 724 mmHg 41%
    20:00 +23°C° 0 mm 10 mps 725 mmHg 46%
    21:00 +21°C° 0 mm 10 mps 725 mmHg 51%
    22:00 +19°C° 0 mm 10 mps 725 mmHg 57%
    23:00 +17°C° 0 mm 9 mps 725 mmHg 62%

    26 October, Friday

    Time Temperature Precipitation Wind Pressure Humidity
    00:00 +17°C° 0 mm 9 mps 725 mmHg 65%
    01:00 +16°C° 0 mm 9 mps 725 mmHg 69%
    02:00 +15°C° 0 mm 9 mps 724 mmHg 73%
    03:00 +15°C° 0 mm 9 mps 725 mmHg 75%
    04:00 +15°C° 0 mm 9 mps 725 mmHg 77%
    05:00 +13°C° 0 mm 9 mps 725 mmHg 79%
    06:00 +15°C° 0 mm 9 mps 726 mmHg 75%
    07:00 +16°C° 0 mm 9 mps 726 mmHg 72%
    08:00 +17°C° 0 mm 9 mps 727 mmHg 68%
    09:00 +19°C° 0 mm 9 mps 727 mmHg 61%
    10:00 +22°C° 0 mm 9 mps 727 mmHg 54%
    11:00 +24°C° 0 mm 9 mps 727 mmHg 47%
    12:00 +26°C° 0 mm 9 mps 727 mmHg 44%
    13:00 +27°C° 0 mm 9 mps 726 mmHg 41%
    14:00 +28°C° 0 mm 9 mps 726 mmHg 38%
    15:00 +27°C° 0 mm 9 mps 726 mmHg 39%
    16:00 +27°C° 0 mm 10 mps 727 mmHg 40%
    17:00 +26°C° 0 mm 10 mps 727 mmHg 42%
    18:00 +24°C° 0 mm 9 mps 728 mmHg 45%
    19:00 +22°C° 0 mm 8 mps 728 mmHg 49%
    20:00 +21°C° 0 mm 7 mps 729 mmHg 52%
    21:00 +20°C° 0 mm 7 mps 729 mmHg 54%
    22:00 +17°C° 0 mm 7 mps 730 mmHg 56%
    23:00 +16°C° 0 mm 7 mps 730 mmHg 58%
    Show more